GFSSGP_con_sbcape_219.txt.gz
CAPE
0 245 416 700 923 1372 198 207 131 64 57 19 3 70 183 248 639 514 226 256 402 645 767 1171 1323 1637 1709 1798 1936 1732 1929 1993 2052 2049 2047 2147 2096 2052 1883 1973 1906 1866 1790 1554 1479 1346 1355 1117 902
30 385 821 1125 1039 686 174 122 74 67 18 5 44 86 171 288 124 121 236 291 571 636 970 889 1583 1713 1848 1669 1821 1908 1942 2080 2153 1989 1870 1975 2109 1894 2181 2062 2130 1927 1891 1702 1486 1313 1104 1168 1222
296 217 880 893 707 414 82 70 65 19 8 69 154 205 439 109 77 112 203 335 498 882 1016 1394 1514 1669 1229 1386 1625 1648 1887 1912 1899 1940 1382 1583 1729 1826 2054 2019 1859 1853 1829 1898 1664 1233 1147 979 878
297 441 630 776 311 117 115 119 39 49 188 180 291 419 226 161 230 215 187 233 460 651 1060 1344 1102 1449 1393 1734 1534 1372 1980 2039 1531 1549 1715 1797 1899 1905 1912 1823 1645 1513 1464 1430 1344 1298 851 1026 843
495 351 1020 610 147 227 194 67 23 107 268 281 301 416 256 126 141 171 262 190 177 279 554 1314 1425 1483 1607 1692 1394 1498 1965 1689 1790 1827 1971 1980 1891 1661 1452 1184 1027 971 935 955 940 1061 545 226 401
697 301 558 399 85 64 52 83 33 126 34 291 186 134 195 82 43 113 51 37 37 182 246 203 1267 1447 1261 1234 1275 1550 1813 1649 1535 1586 1587 1526 1429 1437 1515 1583 1713 1761 1680 1799 1641 654 203 187 156
417 312 624 433 165 115 117 109 22 44 55 187 121 120 70 22 16 17 11 18 8 6 191 661 1213 1227 1675 1485 1271 1337 1445 1617 1519 1474 1509 1470 1702 1827 1736 1783 1693 1656 1915 1819 1543 1006 1003 630 617
603 50 375 243 384 188 415 350 291 9 117 237 306 161 4 11 6 2 2 13 2 0 185 489 614 349 367 433 841 1069 1435 1420 1493 1521 1519 1669 1768 1728 1535 1217 1395 2127 1413 1663 1811 1793 1471 1051 1364
422 24 28 209 345 596 506 565 669 373 315 397 336 85 0 2 2 0 4 6 3 1 139 162 135 320 453 396 955 1316 1382 1655 1690 1577 1609 1847 2327 2069 2146 1321 2157 1863 1850 2003 2127 2211 2062 1273 1339
260 2 0 7 148 389 324 449 381 259 277 398 158 33 0 0 0 0 3 1 0 0 7 15 81 304 741 801 1755 1643 1743 1630 2022 2010 2184 2319 2159 1984 1649 1649 2187 2178 2424 2231 2285 2773 2860 2109 1153
50 12 2 0 85 249 392 319 388 396 67 418 188 21 0 0 0 0 2 0 0 0 0 2 70 409 697 1616 1541 1602 1112 1868 1874 2357 2868 2393 2111 2801 2413 2506 2389 2486 3024 2228 2087 2384 2542 2548 1810
8 0 8 9 51 252 440 400 405 360 322 397 236 56 0 0 0 0 0 0 0 0 2 3 44 370 1409 704 1085 1264 1224 1878 1843 1835 2530 2757 1424 1933 2993 2052 1958 3067 2120 1682 1289 2019 2273 1556 1834
23 5 5 50 103 334 242 341 320 517 473 592 373 108 4 0 0 0 0 0 0 0 0 1 295 1131 1240 1017 1364 1789 779 790 1012 1341 2028 2100 1419 2139 2135 1677 1345 2795 2470 1464 2028 2264 2274 2233 1607
7 41 13 7 16 52 62 71 82 82 274 602 484 212 51 0 0 0 0 0 0 0 0 266 904 1167 1402 1568 1341 1347 1056 1338 858 1428 2132 2599 2212 2489 2003 3202 1157 1133 1757 2213 2695 2641 2812 2246 2067
0 147 236 41 80 81 39 106 193 144 353 664 600 431 217 9 0 0 0 0 0 0 0 440 862 1248 1504 1624 1452 1402 1039 844 1140 1662 2335 2298 2498 2570 3635 1098 1167 1206 2415 2405 2211 1728 1438 1111 1477
0 183 188 265 94 176 33 7 519 427 520 755 787 678 458 77 7 13 2 0 0 0 5 512 644 1136 1208 1356 1322 1157 974 876 1258 1450 2027 2372 2387 2969 3124 1224 1388 1133 1024 1017 1084 803 390 896 1264
1 252 69 3 328 141 48 1 345 714 506 722 927 802 630 210 27 68 17 0 0 0 169 663 841 881 1074 1619 1464 1355 1588 1085 1185 1183 1551 2006 2524 2366 3160 1872 1750 971 238 267 270 929 689 1330 1137
57 164 60 0 156 374 35 79 563 729 905 544 957 877 770 385 79 69 44 0 0 0 314 748 868 1139 1541 1574 1592 1195 1335 1021 1102 1166 1831 2400 1993 1774 3180 1843 2006 1756 750 258 754 2158 1352 1101 1276
19 3 204 78 104 521 222 168 382 576 830 880 788 993 900 619 214 127 133 1 0 0 321 894 1189 2610 1951 1480 1115 1141 1002 1060 1072 1726 2021 1605 1370 1687 2566 1938 2498 2183 1657 1255 1192 490 906 1012 1669
8 3 74 47 215 100 177 104 545 694 592 862 904 864 933 835 398 303 307 137 0 0 122 877 1257 1981 1966 1435 2100 1287 1401 937 1009 1456 1526 1281 1827 2508 2428 2577 2225 3060 2768 2568 1343 726 18 0 579
19 12 54 58 14 9 55 40 48 459 512 527 877 876 930 841 684 458 461 373 94 0 0 594 1617 1979 2478 2554 1497 1959 1713 1821 1461 1782 1627 1532 1826 2449 2747 2755 2733 2809 2816 2073 815 153 90 0 0
27 8 27 30 2 35 3 105 16 128 218 467 734 902 952 960 849 633 564 458 162 17 1 442 1552 2685 2133 2822 2215 3695 1653 1353 966 1432 1822 1483 1673 2019 2376 2605 3050 3398 2463 2278 1221 520 0 654 0
17 49 45 26 31 49 38 16 111 122 263 319 573 747 922 1011 956 738 666 548 390 64 0 341 2371 2561 3027 3008 2964 2148 2573 1065 1100 1155 2643 2365 2506 2043 2006 2611 2949 3056 2758 3019 2032 1349 433 0 8
22 45 53 62 63 104 76 110 146 99 69 202 324 690 879 1064 1067 950 726 695 515 395 51 299 2646 3513 3042 2836 2325 3329 3451 2891 1394 1974 1857 1361 1540 2057 2224 2675 2884 3055 3598 2981 2610 1594 995 483 53
36 90 109 87 80 78 92 157 158 91 45 123 375 493 567 706 1015 1064 916 783 684 556 492 420 2535 3345 2579 1900 2136 2075 2712 3046 2419 2500 1691 2113 1042 1051 3069 2897 3285 3659 3566 3312 3107 2448 1471 942 330
43 89 106 94 113 110 62 124 151 72 18 0 1 150 230 392 610 967 1047 932 731 577 610 507 2352 3290 2874 2510 3020 2977 3461 1973 2176 2715 1252 1096 981 1176 3925 3022 3183 3302 3469 3413 3384 2912 1762 1420 980
62 105 42 83 127 187 151 104 116 10 5 3 0 0 12 16 57 662 1021 1069 904 646 656 534 1937 2738 2717 2222 3164 3500 3313 3486 2303 3604 3466 1672 2588 1664 2695 2564 2817 2941 3458 3365 3533 3103 2749 2064 1617
11 66 82 75 132 150 159 91 156 94 7 3 0 44 8 0 280 407 929 1128 1051 831 672 703 703 1977 1844 1794 2538 2887 2993 3318 3677 4048 3651 3319 3458 2312 3062 2390 2540 2862 3209 3304 3338 2855 3177 2855 2217
0 4 78 87 92 121 186 175 105 60 76 30 22 8 0 94 561 999 957 1136 1122 927 693 756 748 1468 2082 2651 2799 3064 2224 2769 3176 2959 3224 3296 3288 3921 2826 2824 2824 2918 3126 3328 3426 3086 3035 3134 2921
0 3 16 53 23 74 112 151 76 65 33 0 0 6 0 0 179 1043 1031 1084 1144 1050 826 729 1316 1500 2379 3136 3574 3205 2022 2532 2399 3277 2924 2816 3587 3014 3036 2918 3040 3008 3097 3291 3374 3181 2347 2594 2777

GFSSGP_con_sbcape_222.txt.gz
CAPE
0 7 412 756 762 528 148 138 63 43 36 44 70 159 191 402 507 196 318 653 338 606 815 1129 1604 1669 1857 1920 1907 2034 2085 2101 2146 2255 2210 2229 2063 1893 1911 2071 1849 1715 1591 1466 1339 1277 1053 920 1150
0 517 757 1063 608 601 262 54 49 34 4 0 14 237 56 73 0 72 74 766 571 461 922 1147 1928 1854 1842 1737 1949 2021 2155 2274 2196 2208 2152 2218 2498 2091 2067 1952 1947 1931 1752 1500 1315 1133 1097 1086 992
35 348 691 631 387 226 41 44 28 1 4 152 156 239 32 0 6 14 384 601 713 805 1172 1407 1858 1463 1367 1572 1771 2050 2001 2058 2063 1630 1738 1843 2068 1996 1994 1851 1838 1816 1763 1023 1000 1016 984 925 997
197 477 535 555 221 43 53 7 0 35 96 246 165 21 4 89 8 2 455 519 838 877 690 1426 1670 1420 1385 1647 1705 2050 2092 1492 1525 1687 1790 1969 1973 1967 1798 1605 1358 1324 1216 1136 975 662 993 862 746
187 680 672 465 95 88 43 4 144 138 210 310 228 114 2 115 5 7 44 75 769 722 651 844 1842 1544 1610 1329 1613 1935 1750 1765 1834 1895 1827 1905 1767 1527 1216 955 753 695 670 781 745 996 433 790 462
711 121 498 249 125 48 39 35 189 224 207 203 196 30 37 3 9 16 22 68 23 197 789 717 1603 1527 1574 1210 1505 1730 1598 1497 1522 1454 1381 1296 1227 1211 1274 1342 1438 1434 1422 1643 1262 230 262 361 119
420 123 368 224 28 84 45 44 99 11 233 35 31 3 2 11 13 14 3 70 0 35 189 856 866 1055 958 1162 1350 1511 1493 1496 1423 1445 1356 1343 1603 1713 1679 1637 1559 1531 1577 1739 675 740 784 307 252
654 157 96 123 104 118 171 158 92 30 258 97 59 0 0 2 12 1 12 0 0 35 316 971 922 960 925 796 1046 1150 1454 1447 1394 1486 1524 1534 1774 1814 1740 1677 1513 1664 1697 2228 1899 1341 1102 983 1065
408 39 26 179 328 383 452 303 52 283 294 237 285 0 0 0 0 0 4 0 0 103 507 250 353 791 1071 594 799 1264 1439 1497 1555 1463 1603 2184 2261 2145 1856 2420 2147 2117 2373 2741 2435 1755 1337 1595 1561
53 78 8 145 96 430 493 408 266 486 379 141 54 0 0 0 0 0 1 0 0 6 26 0 64 271 456 574 1272 1675 1417 1741 2457 1792 2203 2789 2647 2157 1271 1861 2924 2865 2751 2860 3045 2489 1526 1273 1225
28 101 3 30 29 189 506 516 339 373 350 137 8 0 0 0 0 0 4 0 0 0 5 1 167 277 517 1274 2024 1799 1415 2432 2331 1962 2909 2642 2696 2594 1678 2173 1499 2 1220 871 2029 2264 1574 1708 1835
51 10 0 0 287 350 417 650 535 281 245 181 23 0 0 0 0 0 1 0 0 0 3 8 517 315 1304 700 1193 1754 1130 2480 2265 178 509 2670 997 782 915 990 192 25 814 0 94 1913 2359 1741 1759
43 7 2 16 136 343 213 596 431 265 307 337 39 0 0 0 0 0 0 0 0 2 11 111 1017 335 1652 275 723 1596 1629 1974 1686 8 452 1305 1431 2818 992 932 1152 908 682 308 1079 1231 538 582 1869
53 48 3 42 367 53 185 178 500 601 433 452 136 0 0 0 0 0 0 0 0 0 48 206 1194 2189 1955 2576 2353 1505 1897 2055 1366 2049 2815 3178 1499 2599 3038 2287 1625 1791 2550 1391 2065 1310 596 1147 1710
70 78 51 15 300 247 179 117 2 99 608 478 321 69 1 2 0 0 0 0 0 0 120 947 1121 1496 2660 1369 2510 3189 2230 1657 1924 2717 3920 3521 2785 2788 4271 2708 2271 2694 3955 3604 3342 3087 1969 1860 1242
1 297 129 129 80 83 100 198 82 108 179 530 406 233 21 2 0 0 0 0 0 0 895 933 552 1113 2011 2341 2676 2634 1906 2235 1866 2191 3129 2784 3070 2708 3998 2413 2386 2338 2415 1972 1967 2109 1533 1478 2259
12 36 307 71 18 46 40 68 0 85 307 636 574 468 283 12 0 0 0 0 0 36 1057 1250 1503 1456 1737 2805 2197 2889 2528 2386 2492 1815 2318 3549 2643 3465 3877 2743 3343 2694 1225 1459 2159 2153 2320 2527 2099
11 93 275 40 0 34 65 5 0 49 414 411 559 777 641 109 1 1 0 0 0 86 1089 1601 1719 2295 2758 2284 3722 2675 2427 2575 2200 1833 2275 2394 2453 2856 3728 2596 3664 3107 1468 1481 2298 3279 2893 2849 1813
1 34 133 46 10 48 30 73 23 253 534 672 503 675 779 333 21 66 6 0 0 23 1036 1988 2522 3299 2673 2917 2010 1792 1732 2375 2436 2595 2757 2440 2301 2293 3419 2739 1830 2375 1980 2715 2365 2362 1704 2080 2971
7 20 153 155 53 61 139 135 185 161 380 583 793 790 487 449 161 208 234 0 0 74 1069 2188 2650 2740 3004 2317 2595 2213 2479 2209 2391 2247 2930 2429 2363 2735 3675 4082 3559 3578 3356 3475 1777 1687 1883 639 1542
16 39 127 84 83 69 224 362 176 475 447 633 627 917 807 590 386 438 436 67 5 66 947 1926 2623 2665 2720 3218 2923 2495 3148 3404 2373 2568 2533 2726 2990 3724 3808 3916 4115 3629 2865 2578 1951 1863 625 721 262
17 47 10 117 29 89 29 77 820 745 409 420 683 836 936 862 815 742 644 582 102 83 595 1619 2289 2867 2472 3516 2806 3151 2843 2572 2891 2230 2651 2709 3068 3166 3590 3312 4370 3789 3369 3408 2246 1266 1791 731 393
11 32 4 11 50 58 49 45 57 276 542 361 376 926 886 1073 923 673 620 819 525 19 70 1148 1930 3018 2115 3086 3847 3230 3847 2857 2607 2502 3726 2990 4015 3488 3067 4363 4509 3518 3414 3542 3061 1992 1817 1034 1019
3 11 32 40 63 81 66 80 113 297 317 461 413 703 930 1030 1111 999 964 947 778 218 84 678 1690 3067 2763 2894 3328 3685 3176 3423 2692 2546 2322 2844 2711 3399 3812 3696 4354 4464 4272 4113 2919 2414 1801 915 489
3 40 62 106 92 55 78 66 118 45 3 116 565 649 792 1265 1214 1248 1075 1076 946 568 160 390 1794 2427 2636 2613 2899 3590 3660 4040 3786 3620 2484 2233 2256 2512 4167 4695 4579 4563 4726 4477 3788 3076 2272 1699 1075
32 49 91 88 87 62 34 38 124 88 53 164 342 461 719 641 1012 1190 1191 1201 1111 1007 418 481 1988 2226 2475 2774 2489 3224 3721 3102 3199 3546 2789 3432 2699 3395 4187 4421 4455 4606 4598 4254 4470 3509 2627 2195 1798
1 113 33 69 113 100 59 47 99 151 18 20 214 505 302 537 608 1183 1247 1269 1252 1073 1158 591 2062 2375 2760 2591 2586 2834 3253 3437 3001 3818 3960 3161 3780 3681 4060 3983 4437 4427 4459 4481 4513 3919 3411 2820 2542
0 4 50 83 123 52 61 96 12 166 116 99 30 39 136 83 5 318 1299 1434 1320 1174 1174 1225 1951 2439 2600 2712 2797 2937 2588 2981 3636 3951 4204 3137 3894 3880 3834 3702 3987 4247 4554 4522 4574 4283 4240 3530 3299
0 5 25 77 124 85 105 99 89 65 0 73 66 148 25 20 86 734 1141 1579 1445 1208 1030 1124 1526 2368 2694 2722 2933 3024 2994 2735 2849 3399 4298 2917 3906 4295 4484 4069 4309 4373 4381 4514 4714 4468 4227 3943 3863
0 9 16 83 90 69 110 76 34 11 6 87 94 167 0 0 10 797 1216 1684 1570 1380 1134 1099 1116 2237 2298 2532 2753 2874 3066 2776 2418 2885 3697 4010 3571 4646 4053 4453 4259 4456 4347 4464 4532 4202 3202 3537 3821

GFSSGP_con_sbcape_225.txt.gz
CAPE
0 0 37 723 376 377 86 184 43 42 17 35 62 98 2 21 135 0 477 554 531 903 1180 1623 2122 2299 1940 2041 2196 2262 2262 2219 2288 2236 2245 1949 1874 1706 1714 1714 1644 1561 1404 1334 1306 1103 1194 1442 1674
0 21 772 527 227 143 64 57 12 1 13 31 0 1 5 7 13 204 285 446 472 705 878 1389 2227 2388 1751 2100 2141 2504 2386 2372 2385 2211 2199 2247 2238 1973 1941 1745 1660 1530 1444 1375 1310 1272 1264 1299 1515
7 682 316 374 190 61 16 15 5 14 105 205 46 0 0 21 43 228 137 262 498 773 1044 1255 1979 1949 1875 2237 2602 2141 2225 2248 1828 2148 2055 2205 2124 2111 1755 1700 1730 1796 1436 1382 1248 1170 1199 1275 1215
215 594 655 426 220 37 10 0 14 203 12 0 0 29 2 21 144 206 340 496 802 933 1312 1999 1512 1515 1830 2000 2474 2298 2038 1944 1845 1810 1960 2177 2139 1854 1688 1543 1396 1386 1072 905 762 1209 974 1048 1182
144 390 280 200 130 26 1 27 249 253 134 3 0 0 11 7 92 255 390 476 292 467 975 1370 2042 2145 1542 1808 2026 2211 2341 2082 2036 1992 1974 1849 1678 1480 1289 1121 978 789 767 756 1038 822 1189 898 1281
387 144 189 123 74 27 29 146 109 267 89 0 11 0 0 0 65 115 425 360 237 371 926 1074 1835 2056 1496 1706 1984 1679 1717 1738 1713 1661 1584 1397 1193 978 915 1067 1183 1244 1399 1256 833 266 613 275 1066
423 81 128 155 46 20 98 94 109 69 93 2 0 0 0 0 0 2 318 194 408 331 560 926 1106 1255 1109 1444 1608 1790 1723 1404 1606 1456 1505 1401 1287 1449 1499 1665 1616 1505 1678 1383 314 458 446 284 788
267 358 100 163 189 136 36 15 91 66 9 0 0 0 0 0 0 0 0 0 0 72 345 447 556 557 788 960 1390 1580 1933 1703 1374 1354 1373 1363 1607 1625 1571 1642 1373 1811 2411 2280 1722 971 809 534 987
216 194 29 12 355 331 240 41 0 134 4 0 0 0 0 0 0 0 0 0 0 132 480 270 444 428 404 389 824 1761 1593 1457 1389 1467 1493 2016 1293 1313 1472 1270 2260 2320 2328 1976 1642 1328 1256 1608 1599
57 106 11 46 227 266 240 62 160 263 162 0 0 0 0 0 0 0 0 0 0 227 123 109 265 295 160 159 527 846 1174 1186 511 0 769 1446 1250 1031 1132 2580 2804 2040 2022 1903 2025 1620 1343 1531 1037
68 92 60 2 231 211 180 149 120 346 231 0 0 0 0 0 0 0 0 0 0 6 0 0 4 60 46 548 598 1134 1169 1067 0 108 347 718 976 566 1065 408 0 0 55 543 1963 2097 1233 991 691
60 63 6 57 231 218 367 185 193 154 179 0 0 0 0 0 0 0 0 0 0 0 0 0 43 62 315 892 1177 1171 994 1264 674 244 778 662 1 393 495 14 0 0 380 0 320 1419 1505 1172 1346
91 35 44 250 244 177 478 260 377 311 177 0 0 0 0 0 0 0 0 0 0 0 0 0 88 221 418 594 397 808 1070 1053 145 10 480 575 632 614 167 0 0 377 785 36 287 879 1681 937 1364
45 26 42 164 18 12 206 131 73 332 72 0 0 0 0 0 0 0 0 0 0 0 51 196 566 711 498 1094 946 535 340 1099 30 0 229 1073 1093 1340 80 103 293 838 563 742 912 1006 30 92 786
35 56 77 75 64 1 23 10 70 6 127 5 0 0 0 0 0 0 0 0 0 0 0 595 535 1271 676 957 525 755 863 1325 1293 1513 1467 2133 1941 2162 2445 485 841 689 747 754 1268 953 666 718 936
0 155 82 34 263 60 20 41 59 1 74 54 0 0 0 0 0 0 0 0 0 0 134 288 448 1036 629 673 869 1137 721 929 1150 1408 1504 1715 1144 1595 2236 392 573 723 1763 1321 376 1500 890 865 708
0 63 305 130 106 123 11 14 0 0 4 204 103 12 0 0 0 0 0 0 0 69 197 167 410 695 783 682 1249 1230 1345 1345 1300 1657 1394 1830 1669 2249 1069 824 1334 12 233 751 1087 1452 541 728 600
0 262 245 39 68 165 0 13 0 0 25 119 277 174 18 0 0 0 0 0 11 48 84 537 616 392 1059 982 1052 1434 712 1268 1141 1601 1535 1722 1342 2105 1367 1410 943 103 85 361 577 682 1184 1321 1239
0 0 178 70 161 56 13 0 0 21 25 54 352 285 238 1 0 0 0 0 133 74 34 890 946 978 837 763 1383 319 337 1186 1818 1337 1020 1047 1003 2341 2788 1286 842 655 730 687 595 770 88 39 429
0 0 176 79 117 10 3 26 39 6 43 180 144 364 358 36 0 0 0 0 8 103 26 1115 1001 1564 606 1141 1062 592 605 1364 1169 1036 743 1054 1558 1953 2161 1847 1851 1306 1574 62 5 24 215 0 4
0 0 144 180 190 69 62 26 75 13 136 391 228 257 522 168 7 7 0 0 0 137 90 1124 1193 1427 1199 1049 1281 1740 1855 1223 1191 1176 809 1196 1560 1879 2002 2423 2308 2150 1280 486 150 48 0 0 0
0 0 27 71 27 59 109 77 174 59 45 617 147 33 422 324 48 30 0 0 0 171 293 1078 1052 1022 995 1599 1215 1125 1261 1079 899 885 963 1160 1552 2393 2630 2276 1872 1821 878 140 47 11 303 0 0
0 0 0 43 0 0 144 34 198 116 43 184 410 268 510 427 115 50 19 0 0 119 422 1082 1498 1189 433 1465 2011 1652 2225 917 1434 1399 1267 1256 1476 1763 2295 2402 2440 1880 1399 1268 705 142 0 0 0
0 0 0 4 0 0 1 35 16 205 284 219 332 716 776 526 300 149 88 6 0 15 415 998 1744 1436 944 1396 1856 2135 1028 1933 1474 1561 1648 1695 1512 1791 2241 2612 2506 2429 1950 1288 868 449 6 0 0
0 0 0 1 1 2 20 0 150 361 347 129 19 919 961 783 552 374 184 244 11 0 145 957 1249 1740 1313 1603 1955 1854 1403 1993 1754 1384 1813 1495 1259 1603 2514 2143 2746 2626 2616 1726 1695 1010 613 474 0
0 0 0 17 6 28 9 5 54 147 70 106 85 303 947 928 748 520 407 442 261 1 0 700 851 1803 1339 1823 1716 1928 2443 2423 2160 1716 1137 1308 1328 1506 2549 2660 2861 3019 2860 2385 2038 1147 983 638 140
0 0 0 0 0 39 27 3 157 105 55 234 393 122 799 976 906 686 674 550 409 69 2 265 730 1210 1451 1834 1440 1888 2179 2034 1893 2051 1508 2114 2319 1805 2602 2842 2593 3048 2902 2644 2575 2361 1567 804 1119
0 0 0 4 4 29 3 10 41 55 2 27 84 291 782 586 663 931 793 714 560 397 36 109 815 939 1578 1540 1490 1709 1648 2245 2102 2746 1679 1322 2346 2458 2560 2845 2841 2811 2954 2700 2714 2792 2200 1354 1446
0 0 0 0 0 0 0 0 1 0 0 0 6 282 239 32 10 332 979 904 693 569 150 198 1056 1077 1615 1228 1681 1624 1474 1711 1945 2082 2775 2658 1467 2644 2585 2467 2533 2653 2961 2920 2897 2612 2987 2137 2099
0 0 0 0 0 0 0 0 12 0 0 0 0 0 0 11 293 791 904 999 884 687 693 271 1309 1418 1629 1516 1590 1622 1889 1397 1561 1842 2025 3165 1889 2774 2420 2332 2302 2963 2688 2969 3045 2711 2906 2713 2645

GFSSGP_con_sbcape_228.txt.gz
CAPE
0 7 48 632 159 249 106 40 13 4 0 17 23 31 12 31 0 1 490 524 792 1211 1581 1831 2532 2190 2070 2242 2425 2422 2486 2442 2462 2412 2277 2118 1804 1971 1971 1985 1750 1559 1560 1478 1486 1575 1833 2054 2107
0 16 797 467 157 33 39 3 13 2 0 0 3 16 29 73 393 447 326 695 846 1007 1243 1736 2499 2446 2171 2414 2472 2563 2377 2444 2517 2397 2183 2245 2194 2002 1898 1715 1675 1680 1599 1508 1416 1388 1517 1731 1837
0 415 453 355 168 28 2 1 21 0 20 33 0 3 34 259 312 176 421 462 701 886 1178 1668 1944 2137 2175 2404 2513 2607 2172 2419 2457 2379 2467 2333 2269 2198 2053 2046 2056 1685 1620 1515 1469 1352 1432 1534 1565
251 607 547 400 139 75 4 11 0 0 7 0 0 10 45 147 121 253 314 644 662 861 1208 1978 1862 1953 2175 2100 2256 2290 1479 1839 1945 1963 2344 2219 1984 1886 1859 1764 1578 1159 1132 1200 1353 1340 1387 1280 1298
214 370 163 173 161 6 9 134 48 0 1 0 0 2 45 134 79 292 535 661 876 1065 1049 1104 2239 2040 1943 2006 1714 1565 1617 1774 1870 2013 2103 1976 1772 1497 1305 1282 1274 1068 1063 1035 1190 1292 1190 1388 1205
362 78 117 89 79 71 153 228 79 1 2 0 0 1 27 101 173 414 398 449 684 921 1079 1190 2073 1684 1758 1892 1676 1792 1918 1959 1868 1830 1669 1471 1277 1039 879 829 874 1056 1144 1191 717 1202 875 1282 852
312 112 8 201 222 153 146 106 8 0 0 0 0 0 41 111 165 132 43 90 563 801 842 1077 1236 844 1638 1862 1474 1453 1545 1480 1414 1310 1185 1050 1045 1100 1215 1314 1518 1462 1732 1221 545 682 717 819 1167
490 147 12 95 83 27 121 12 5 0 4 0 0 0 22 21 200 134 155 80 338 655 777 818 803 592 838 1214 1711 1728 1810 1418 1409 1388 1313 1295 1522 1574 1459 1349 1584 1693 1623 1117 873 804 571 808 1285
400 151 165 77 227 160 17 33 29 2 0 0 0 0 0 9 108 65 70 12 58 328 373 360 364 347 492 693 1039 1816 1587 1442 1381 1309 1609 1400 988 996 1356 984 1965 1927 1969 1728 1223 1090 779 1046 1435
126 61 44 47 6 124 204 75 32 10 1 0 0 0 0 6 0 0 0 0 76 298 193 107 238 213 183 463 561 810 1002 882 250 46 748 1130 868 815 1554 2055 1286 1782 2190 2094 1531 1358 1500 1476 974
48 35 37 50 0 60 250 367 117 0 0 0 0 0 0 0 0 0 0 0 138 216 68 53 143 116 33 71 354 491 748 715 0 384 866 873 595 864 482 0 0 0 548 1373 1711 1556 1023 821 749
79 26 10 13 112 168 318 381 344 185 3 0 0 0 0 0 0 0 0 0 76 17 0 23 6 40 0 284 248 790 838 533 394 308 509 297 0 0 470 0 0 1 13 198 977 1211 988 879 828
91 38 29 31 149 168 183 154 111 196 0 0 0 0 0 0 0 0 0 0 9 0 0 0 2 15 183 462 576 728 666 870 182 179 471 18 0 139 339 0 0 246 411 0 42 361 1315 1205 1124
98 79 17 32 77 73 311 185 19 197 46 0 0 0 0 0 0 0 0 0 0 0 0 0 47 183 228 195 244 313 632 609 0 87 478 292 299 280 191 21 0 97 530 107 84 277 983 1050 137
54 119 186 88 101 45 66 95 199 30 12 13 0 0 0 0 0 0 0 0 0 0 0 94 240 350 252 572 156 303 585 612 0 10 347 274 725 711 155 119 88 260 625 607 806 847 274 106 375
23 31 21 225 97 54 82 59 18 9 120 68 0 0 0 0 0 0 0 0 0 0 201 398 970 463 356 334 522 1070 393 650 612 924 1030 1078 977 1218 170 159 297 580 796 648 984 892 536 429 715
0 2 46 67 168 89 45 73 0 15 49 3 0 0 0 0 0 0 0 0 0 0 100 200 751 511 350 244 529 971 660 669 683 1005 1132 1477 1737 738 339 323 132 430 616 632 677 531 519 490 332
7 153 107 83 196 57 16 0 2 0 0 0 29 0 0 0 0 0 0 0 0 28 0 50 212 316 158 392 534 1119 852 634 787 878 1098 710 1363 947 931 844 0 2 32 157 250 318 515 633 391
0 0 72 58 211 32 6 2 1 0 0 0 78 0 0 0 0 0 0 0 24 63 14 184 144 82 520 417 703 321 463 830 923 929 917 586 1346 2131 605 145 44 241 240 111 75 106 0 0 260
0 1 66 125 143 23 9 2 0 0 37 18 126 258 14 0 0 0 0 37 33 0 94 380 190 130 446 178 664 25 667 1064 1069 507 335 1338 1501 1672 754 452 242 195 11 0 0 0 0 0 0
0 0 23 84 151 77 39 2 5 12 39 264 225 257 193 0 0 0 0 33 22 0 46 616 249 415 174 200 835 1148 1046 924 865 431 602 1131 1513 1576 1796 1653 1248 1189 0 0 0 0 0 0 0
0 0 7 145 55 23 42 9 64 4 4 85 154 238 76 116 0 0 0 27 20 0 91 634 788 508 230 487 624 792 1077 821 548 339 317 996 1475 1446 1801 1702 1669 747 1 0 0 0 0 0 0
0 0 3 156 51 16 74 23 0 53 8 7 32 204 40 78 0 0 0 0 17 4 193 878 788 532 478 1227 1533 555 531 313 429 357 616 739 924 1700 1918 1395 1484 1100 466 38 0 0 0 0 0
0 0 0 22 10 0 0 7 0 63 15 33 1 44 177 118 46 1 0 0 3 12 261 1009 681 493 243 787 1043 1699 1480 822 706 581 682 699 919 1261 2029 1917 1448 977 728 504 4 0 0 0 0
0 0 0 1 7 0 0 0 0 17 50 85 95 45 87 221 112 16 0 0 0 50 254 1037 574 494 372 500 864 1333 1290 1252 802 784 770 863 790 1111 1640 1971 1825 1534 1271 695 196 98 0 0 0
0 0 0 0 0 0 0 0 0 0 63 173 159 141 245 268 196 30 3 0 5 71 250 917 927 616 652 587 804 1331 1513 1487 892 822 972 918 646 999 1732 2004 2012 2126 1950 1152 1173 504 201 50 0
0 0 0 0 0 0 0 0 13 44 52 57 171 191 452 501 415 71 46 0 0 36 248 602 1194 951 880 767 864 1259 1517 1768 1446 1287 945 708 876 898 1543 1910 2367 2327 2152 1776 1491 961 711 458 38
0 0 0 0 0 0 0 0 42 71 31 111 27 159 670 833 581 259 168 168 0 0 212 491 859 1078 996 747 921 1092 1351 1777 1236 1537 1312 1285 1447 1458 1579 2292 2044 2468 2345 2062 2018 1919 1864 773 510
0 0 0 0 0 0 0 0 0 33 0 44 117 11 29 446 465 554 399 304 225 11 9 444 617 801 1131 828 1012 995 1113 1619 1521 1787 2200 1133 1169 1972 1836 2161 2235 2183 2434 2240 2066 2059 2168 1638 1159
0 0 0 0 0 0 0 0 0 14 0 0 78 88 267 349 501 188 571 464 390 78 8 89 499 584 1122 941 1157 1065 1051 1069 1571 1355 1474 2017 1187 2023 2124 1889 2182 2182 2071 2367 2344 2298 2369 2404 1959

GFSSGP_con_sbcape_231.txt.gz
CAPE
1 31 32 342 226 129 36 2 13 29 14 0 7 61 106 259 4 0 226 417 988 1386 1627 1963 2566 2454 2278 2381 2474 2296 2262 2239 2329 2329 2232 1849 1987 1914 1738 1615 1666 1630 1613 1749 1939 2000 2166 2347 1401
0 52 626 382 87 29 1 11 22 12 1 1 5 35 102 317 471 467 297 656 1052 1318 1406 1909 2538 2572 2306 2391 2402 2494 2550 2403 2269 2203 1925 1926 2062 1953 1839 1594 1456 1407 1401 1451 1666 1923 2136 2010 1876
36 739 437 369 173 7 0 12 1 1 2 31 10 33 201 217 282 313 312 738 924 1070 1459 1613 2159 2115 2377 2439 2477 2503 2408 2486 2366 2296 2191 2231 1950 1891 1763 1748 1710 1690 1566 1393 1449 1636 1820 1840 1758
448 840 500 368 79 43 11 4 35 23 44 7 26 73 164 230 226 339 454 682 858 1053 1354 1888 2047 2085 2283 2463 1954 1989 2345 2470 2132 2340 2226 2222 1996 1942 1839 1713 1464 1640 1604 1637 1494 1496 1463 1401 1303
321 487 251 118 89 6 21 28 63 34 9 22 18 44 106 104 213 264 475 598 715 999 1242 1429 2354 2131 1902 2110 2111 1300 1736 1869 1958 2470 2233 1978 1935 1595 1472 1604 1379 1253 1131 1552 1443 1477 1402 1171 1234
414 104 73 82 67 101 53 54 24 10 0 10 43 28 66 119 186 375 464 525 852 768 806 1417 2018 1911 1883 1501 1352 1490 1656 1758 1854 1870 1745 1600 1517 1347 1079 852 836 1004 1244 1244 1558 1341 1458 1334 998
399 125 2 186 161 121 74 21 4 0 0 0 3 31 75 171 328 393 430 556 732 829 868 1173 1011 1317 1831 1500 1522 1708 1705 1583 1524 1408 1216 1057 961 1024 1239 1469 1225 1176 1144 699 885 1241 899 1251 916
323 47 61 113 126 184 196 31 1 13 14 0 21 28 94 161 257 49 156 386 528 648 807 913 605 714 1194 1154 1338 1405 1410 1366 1331 1249 1232 1334 1614 1730 1646 1315 1051 1041 791 795 788 1054 658 1154 1352
67 43 75 47 169 273 285 58 23 11 0 0 9 21 53 157 71 26 48 174 361 511 574 594 534 434 622 858 1183 1637 1534 1450 1462 1401 1610 1354 861 1034 1141 958 1450 1284 1254 1287 1075 853 778 1101 1498
191 23 15 113 107 309 376 306 165 22 1 0 0 12 130 101 77 30 0 80 92 253 236 218 242 272 345 717 692 920 975 754 318 228 833 817 735 939 1467 1965 2297 2173 1620 1340 1313 1177 984 1242 910
69 26 34 29 15 313 437 260 109 9 18 0 0 14 137 72 40 10 0 0 7 118 81 61 67 121 63 96 312 424 653 490 0 131 584 676 838 1367 122 0 0 50 1450 1350 1192 1424 1034 632 704
54 38 17 36 181 244 347 39 321 275 185 1 0 88 45 46 0 0 0 0 98 100 33 24 58 72 0 12 218 374 646 113 80 293 395 238 140 321 2 0 0 0 202 770 892 663 654 553 352
41 30 38 158 287 285 9 3 233 122 26 0 0 0 0 0 0 0 0 0 67 44 2 0 0 7 0 171 146 519 600 571 218 132 98 0 0 16 171 0 0 39 52 55 317 631 778 731 775
39 95 162 266 393 200 90 20 96 18 54 0 0 0 0 0 0 0 0 0 0 0 0 0 0 0 21 216 326 415 438 564 0 171 111 0 0 73 145 0 0 245 194 4 1 128 596 1039 961
130 144 157 131 145 153 197 115 58 34 67 0 0 0 0 0 0 0 0 0 0 0 0 0 0 38 77 146 139 202 425 326 0 18 278 225 255 207 119 14 0 96 466 449 121 368 462 445 168
52 0 17 128 158 117 78 114 128 110 173 0 0 0 0 0 0 0 0 0 0 0 0 0 62 138 172 198 102 292 302 337 0 24 388 338 437 654 238 54 66 280 538 468 619 700 475 50 217
0 27 33 103 192 112 10 24 0 56 251 97 0 0 0 0 0 0 0 0 0 0 0 86 381 191 274 156 310 585 178 316 447 518 767 1126 845 1222 380 121 167 289 606 755 582 344 580 236 332
29 114 54 80 122 87 1 0 0 43 206 43 12 0 0 0 0 0 0 0 0 9 68 333 290 138 103 120 374 745 623 437 476 619 710 814 787 436 296 209 17 108 290 170 98 330 347 269 90
0 0 0 37 155 17 0 0 0 9 0 0 0 32 0 0 0 0 0 0 0 58 0 252 159 84 27 263 406 409 575 449 592 701 643 697 699 474 498 25 0 0 45 63 77 1 0 0 9
0 0 0 81 111 4 0 0 0 0 0 0 0 61 1 0 0 0 0 0 32 59 0 70 58 8 97 152 364 48 264 488 662 399 311 883 1615 465 102 0 4 0 0 0 0 0 0 0 0
0 0 5 37 119 29 14 0 0 0 0 0 0 48 9 0 0 0 0 0 23 51 7 42 7 0 85 44 738 569 723 631 588 285 379 929 1355 672 398 123 145 159 0 0 0 0 0 0 0
0 0 0 89 43 2 4 0 0 0 0 0 0 97 92 0 0 0 0 13 45 53 71 72 14 0 0 205 613 825 985 875 426 149 210 946 1161 1469 1561 1207 1243 196 0 0 0 0 0 0 0
0 0 14 118 35 21 8 0 0 0 0 0 0 8 71 7 0 0 0 17 51 45 123 228 76 88 0 127 300 558 720 377 211 104 273 636 1094 1462 1637 1401 1307 155 0 0 0 0 0 0 0
0 0 0 21 0 0 0 1 0 4 11 0 0 15 69 53 0 0 0 0 34 32 148 342 194 156 48 445 670 291 519 217 347 180 230 404 597 1225 1711 1297 1266 618 224 15 0 0 0 0 0
0 0 0 0 0 0 0 0 0 0 4 20 0 0 102 24 5 0 0 8 11 22 138 474 311 172 51 338 832 1073 874 387 352 261 288 373 614 815 1647 1643 1138 794 513 273 0 0 0 0 0
0 0 0 0 0 0 0 0 0 0 0 6 1 0 23 129 92 0 0 0 17 18 131 694 354 209 50 126 376 722 1215 984 486 249 352 303 596 693 1495 1681 1375 1267 1051 554 17 8 0 0 0
0 0 0 0 0 0 0 0 0 0 0 0 22 8 24 148 223 52 0 0 0 10 64 714 511 260 102 136 165 616 1013 851 714 506 410 428 372 432 1042 1450 1713 1685 1798 1171 817 502 75 72 1
0 0 0 0 0 0 0 0 0 16 20 38 101 59 49 124 288 180 21 0 0 2 26 391 637 437 286 272 191 367 930 1493 1052 713 674 623 609 643 772 1553 1815 1964 1986 1643 1374 1173 779 617 225
0 0 0 0 0 0 0 0 0 0 0 37 23 30 215 419 394 249 132 0 0 0 26 196 696 595 534 523 445 307 797 1506 1160 1049 910 798 873 978 1270 1205 1737 1911 2182 1924 1738 1690 1672 1669 1163
0 0 0 0 0 0 0 0 0 0 0 0 192 1118 727 491 366 354 157 76 0 0 82 202 473 760 703 678 524 427 619 1254 1455 1087 1528 1212 931 914 1504 1375 1783 1807 1959 2133 1924 1825 1982 1844 1816

GFSSGP_con_sbcape_234.txt.gz
CAPE
9 38 6 179 187 36 3 5 4 18 39 1 13 12 196 372 79 3 330 453 1134 1320 1631 2039 2418 2298 2389 2239 2313 2312 1936 1995 2220 2071 1924 1853 1856 1784 1907 1910 1989 1880 1855 1921 2048 2225 1598 1780 2291
14 38 471 436 44 0 0 1 12 22 0 16 38 108 245 420 343 337 370 830 1170 1351 1509 1860 2406 2664 2396 2451 2270 2246 2183 2074 2232 2038 1926 2110 1971 1851 1596 1690 1668 1554 1804 1897 1929 1782 2204 1491 1656
389 748 360 236 86 0 0 14 6 0 7 32 46 130 275 124 269 282 356 921 1119 1198 1545 1624 2055 2304 2281 2317 2170 2234 2125 2121 2086 1890 1942 2120 1776 1740 1740 1664 1506 1522 1560 1564 1581 1781 1965 1780 1694
621 815 500 287 25 15 38 0 6 9 3 19 74 141 178 186 272 334 669 908 915 1274 1261 2164 2021 2124 2115 2298 1952 2149 2075 2021 2102 2119 2149 1989 1880 1734 1769 1530 1540 1900 1647 1513 1616 1691 1701 1667 1826
376 276 101 110 30 40 46 19 22 25 12 17 37 118 128 243 250 376 591 765 823 1070 1198 1583 2298 2009 2039 1648 1504 1980 1886 1895 1950 1925 1986 1921 1797 1606 1695 1462 1417 1475 1560 1571 1555 1423 1406 1423 1467
378 38 74 24 68 52 55 45 8 0 3 35 66 77 87 137 117 353 487 568 821 904 915 1488 2108 1692 1886 1891 1031 1397 1589 1782 1817 1991 1915 1673 1429 1395 1391 1317 1217 1202 1263 1565 1495 1515 1434 1369 1490
444 45 14 187 230 191 79 59 0 0 0 6 33 44 68 124 239 323 407 635 650 600 890 1068 1173 1252 1356 1037 1234 1474 1528 1630 1633 1520 1403 1242 1035 995 1069 1045 1036 1115 1199 1257 1594 1363 1524 1059 1217
348 91 86 70 203 223 86 15 4 1 0 3 36 44 18 180 294 219 383 444 542 596 767 649 586 896 919 855 1465 1431 1323 1255 1193 1158 1129 1240 1493 1708 1475 1249 1661 865 984 803 1176 1138 1120 1226 1571
27 12 4 1 91 306 310 18 14 0 0 0 2 42 57 225 76 126 227 331 427 527 599 469 322 489 637 838 950 1430 1345 1361 1377 1282 1394 1361 792 824 869 1123 1048 962 1205 1070 1131 1226 889 1457 1655
253 0 0 38 97 232 324 197 292 0 0 17 46 116 99 43 48 78 73 14 181 362 379 298 195 262 378 859 706 821 1034 717 495 395 742 653 647 881 1339 1643 1268 1335 1359 1237 1159 989 1085 1277 962
199 40 29 86 85 482 208 182 94 0 0 0 18 110 85 53 32 0 3 1 62 98 157 149 88 101 177 269 304 390 538 327 0 84 447 551 950 680 4 5 264 1128 1494 1329 1364 1441 1067 846 792
34 14 26 46 261 278 192 161 204 235 186 24 18 71 89 68 0 0 0 0 0 40 59 28 0 24 0 0 165 244 522 31 120 367 464 340 681 50 0 0 0 370 859 1022 1004 930 788 552 457
50 8 32 199 231 299 58 103 151 99 60 0 38 67 58 45 0 0 0 0 0 4 0 0 5 5 0 0 28 283 419 194 129 230 206 0 36 53 0 0 0 117 232 507 677 744 692 790 807
55 60 230 347 280 68 9 30 67 59 44 1 27 7 12 1 0 0 0 0 0 0 0 0 0 0 0 13 54 362 354 575 19 195 110 0 0 21 22 0 25 404 191 62 216 378 672 1036 1112
103 126 140 189 164 157 79 18 2 0 0 0 0 0 0 0 0 0 0 0 0 0 0 0 0 0 0 70 139 145 321 366 0 115 257 145 0 97 88 0 0 371 361 379 105 457 689 768 751
45 4 42 79 112 120 29 0 38 26 1 1 0 0 0 0 0 0 0 0 0 0 0 0 0 2 18 62 66 166 299 281 0 0 258 313 379 415 68 24 37 338 608 540 650 808 765 437 214
0 5 1 73 73 159 61 0 63 1 61 31 0 0 0 0 0 0 0 0 0 0 0 0 7 55 44 46 86 301 160 262 189 89 568 729 485 891 295 62 122 514 707 768 779 783 821 405 516
8 51 42 30 48 43 36 0 0 69 150 55 0 0 0 0 0 0 0 0 0 0 0 0 58 93 98 52 242 393 218 149 368 551 699 815 1031 1179 312 170 141 302 488 370 348 488 481 455 408
0 0 0 16 52 3 0 0 3 83 215 79 7 0 0 0 0 0 0 0 0 0 0 0 123 42 13 124 282 349 617 335 404 621 673 719 482 397 285 20 28 129 236 127 75 1 7 127 80
0 0 0 95 86 1 0 0 0 35 125 13 0 0 0 0 0 0 0 0 0 0 0 60 91 0 0 69 157 100 252 288 495 503 481 573 781 473 209 0 0 0 31 0 0 0 0 0 0
0 0 0 4 97 11 0 0 0 0 52 0 0 0 0 0 0 0 0 0 0 0 3 38 0 0 0 16 273 270 479 387 493 251 236 948 1497 385 137 0 3 0 0 0 0 0 0 0 0
0 0 0 100 17 0 0 0 0 0 0 0 0 0 1 0 0 0 0 0 2 28 1 18 0 0 0 1 485 386 524 583 530 280 191 769 1224 830 359 126 455 6 0 0 0 0 0 0 0
0 0 0 37 9 10 0 0 0 0 0 0 0 0 0 1 0 0 0 0 6 28 5 0 0 0 0 39 346 501 466 380 141 95 242 647 1027 1489 1592 1401 1161 24 0 0 0 0 0 0 0
0 0 0 0 0 0 0 0 0 0 0 0 0 0 7 26 0 0 0 0 0 12 14 35 8 0 0 6 181 298 563 302 277 166 224 421 713 1292 1674 1413 1440 190 0 0 0 0 0 0 0
0 0 0 0 0 0 0 0 0 0 1 0 0 0 0 111 0 0 0 0 0 0 0 114 53 63 0 54 271 148 344 236 357 280 198 325 681 945 1701 1565 1316 967 616 252 0 0 0 0 0
0 0 0 0 0 0 0 0 0 0 0 0 0 0 0 73 0 0 0 0 5 14 16 199 134 116 29 147 469 637 676 320 258 210 178 247 558 868 1343 1770 1493 1141 893 495 20 0 0 0 0
0 0 0 0 0 0 0 0 0 0 0 0 0 0 1 0 0 0 0 0 3 17 41 227 277 207 23 107 281 616 993 854 627 316 213 304 282 591 1179 1738 1739 1579 1503 1120 407 433 177 53 0
0 0 0 0 0 0 0 0 0 0 0 0 0 0 21 49 55 0 0 0 17 35 35 185 310 261 64 51 135 359 590 840 872 583 433 444 484 546 835 1541 1838 1865 1911 1761 1109 977 606 271 364
0 0 0 0 0 0 0 0 0 0 0 11 8 0 0 102 123 45 0 0 0 3 3 126 413 284 82 47 39 153 486 1028 1162 901 728 577 592 721 784 907 1602 1933 2077 1957 1718 1629 1562 1417 1488
0 0 0 0 0 0 0 0 0 0 0 21 57 118 116 129 177 157 3 0 0 11 13 103 459 447 261 147 175 84 356 915 1265 1081 1056 749 737 835 1118 1360 1419 1673 1955 2225 2043 1973 2083 1951 1935

GFSSGP_con_sbcape_240.txt.gz
CAPE
3 38 212 1143 1349 1052 151 131 40 25 28 33 4 297 740 725 430 514 886 877 969 1350 1623 1627 1868 2111 1971 1660 2095 2117 1741 1493 1983 1977 2077 2165 1917 2133 2144 2011 2336 2447 2237 1902 2115 2012 2088 2227 2229
11 169 1190 1543 1062 203 261 80 73 90 88 44 318 566 764 619 360 480 596 715 848 1048 1487 1459 2097 2238 1983 2055 1820 1665 1803 1829 1905 1698 1688 1866 1932 2041 2081 2187 2094 2191 2286 2115 1667 1958 2093 2089 2169
356 901 1444 1441 533 101 249 77 61 106 42 241 504 663 587 387 216 289 454 640 757 881 949 1724 1767 1898 1977 2083 1971 1958 1810 1840 1651 1924 1928 1744 1711 1884 1822 1773 2020 2179 1987 2154 2161 1689 1748 1677 1892
1487 1697 1576 1426 261 248 279 131 47 39 59 211 470 433 210 134 242 281 543 557 781 828 1282 1755 1892 1960 1925 1794 1886 1930 1893 1830 1898 1829 1768 1868 1896 1863 1723 1678 1883 1926 1974 2013 1846 1882 1937 1753 2128
1180 1207 924 528 353 265 138 130 130 118 159 208 171 42 63 322 275 280 480 459 656 629 973 1451 1722 1954 1914 1851 1815 1838 1871 1994 1887 1908 1658 1710 1568 1622 1795 1813 1935 2018 1946 1854 1808 1937 1982 1926 1713
1466 1049 740 455 303 206 310 262 271 225 259 90 45 26 349 251 146 241 306 354 237 763 882 1325 1723 1720 1785 1763 1715 1745 1889 1935 1866 1771 1811 1656 1784 1677 1629 1569 1908 1961 1946 1750 1901 1923 1944 2050 1778
1101 864 553 486 266 377 441 187 241 225 134 91 20 0 168 123 85 166 242 251 225 405 536 957 1223 1719 854 1513 1561 1764 1824 1718 1798 1624 1457 1271 1082 1079 1173 1334 1584 1847 1776 1849 1872 1662 1937 1951 1989
679 794 702 661 439 651 106 42 0 0 48 31 0 0 102 95 90 117 166 207 203 640 793 551 954 564 246 577 1408 1670 1638 1567 1364 1178 1059 1093 1135 1290 1201 1403 1559 1600 1890 1704 1794 1595 1935 1749 2099
32 643 629 220 411 619 172 202 15 5 0 0 15 0 0 52 45 57 101 152 213 331 247 219 593 442 782 867 1229 1205 1210 1220 1268 1412 1474 1239 1014 1108 1001 1411 1303 1140 1370 1517 1339 1621 1843 1664 1707
206 107 285 623 668 592 220 206 0 32 60 56 35 0 0 0 2 20 25 40 70 227 132 155 297 415 500 394 919 1411 1301 1454 2075 1585 1509 849 1074 1330 1042 1189 1176 1271 1223 1550 1223 1585 1652 1811 1166
432 19 61 520 645 249 303 282 0 48 135 135 92 29 0 0 0 0 0 0 0 50 34 113 385 588 673 958 1208 1316 1411 1596 1736 1964 1950 1606 1126 1543 1337 1155 1202 1267 1407 927 914 1119 1146 1200 998
360 16 24 293 682 626 671 67 43 44 208 0 29 23 0 0 0 0 0 0 0 0 0 46 364 723 838 981 1147 1337 1458 1384 1036 1713 1977 2690 1776 1246 1400 1772 1353 1371 1200 1185 977 1083 1319 1122 1374
409 154 146 340 628 656 545 361 347 501 10 0 0 1 0 0 0 0 0 0 0 0 0 104 353 567 723 978 1193 1511 1195 1059 1440 1608 1881 1481 1153 1191 955 1297 1265 1246 1260 1115 1135 1273 1260 1532 1409
243 300 453 532 694 617 723 624 595 384 28 16 0 4 36 1 0 0 0 0 0 0 3 77 183 481 679 965 1576 1550 1317 1504 1289 1520 1479 1603 708 992 1178 1032 901 989 781 746 950 1159 1495 1438 1207
431 633 695 764 537 463 370 363 289 447 93 37 4 0 50 31 3 0 0 0 0 0 0 51 358 704 1013 1381 1495 1386 1485 1396 1266 1538 1777 1441 1126 1372 1236 1097 839 767 1062 1311 1608 1707 1549 1396 1229
350 440 382 828 570 511 362 326 166 122 147 76 14 1 27 67 0 2 0 0 0 0 71 312 328 742 1040 1230 1394 1360 1509 1394 1136 1299 1284 1442 1444 1643 1172 1301 1441 1462 1500 1438 1505 1610 1594 1515 1240
204 168 89 197 516 527 410 367 535 202 256 358 97 30 10 60 5 4 0 0 0 18 392 660 739 759 1002 1702 1459 1509 1867 1646 1327 1499 1414 2017 1833 1646 1168 1012 1469 2163 1541 1475 1542 1638 1779 1305 1205
21 67 45 16 146 308 536 361 493 327 199 567 249 67 5 20 6 0 1 5 0 165 595 881 1016 1069 1480 1550 1691 1108 1249 1533 1409 1525 1817 2369 2062 2185 1673 1378 1890 2081 1522 1635 1675 2210 1712 1791 1323
11 61 60 0 49 200 273 280 284 488 279 325 481 144 43 18 0 0 1 39 95 271 627 949 1130 1614 1679 1472 1350 1444 931 1199 1515 1814 2467 2727 2321 2371 2277 1543 2148 2277 1859 1921 2777 2475 2611 1211 1716
34 59 68 9 56 85 14 12 45 201 491 436 659 284 81 2 0 0 0 16 138 310 601 955 1200 1836 1738 1419 1549 1704 931 1119 1463 1708 2278 2095 2224 2261 1990 1464 1871 2129 1892 2241 2627 2589 1095 1225 1784
55 41 86 57 28 33 16 43 3 7 371 401 779 470 236 11 0 9 13 0 53 238 518 816 1299 1744 1792 1483 1927 1693 1925 1670 1824 1942 1567 1703 2024 2120 1611 1922 1641 2438 1939 1426 2282 2315 2036 1054 1546
77 58 47 29 43 68 4 78 41 104 364 534 658 535 383 203 1 2 30 23 9 116 323 609 1231 1749 1958 1993 2123 1828 991 1136 1159 1680 1601 1699 1688 2242 2501 1724 1757 2077 1044 1088 1609 1597 1871 1920 1144
27 90 54 44 53 36 11 2 72 87 253 466 667 656 558 438 103 13 23 82 28 0 172 428 1106 1787 1793 2114 1947 2207 1669 1094 1230 1269 2229 2278 2543 2520 2396 2185 2327 2804 1527 1316 1564 1562 1749 1064 974
23 39 29 31 66 64 25 6 23 49 59 215 588 714 601 640 434 71 18 50 146 78 56 277 1274 1898 2062 2090 2083 2267 2072 1826 1457 1889 2218 1874 1644 2141 2645 2367 3058 3258 2309 1697 1442 1837 1863 1642 1276
21 66 59 53 74 58 58 0 20 4 0 24 309 704 621 657 687 480 113 44 94 148 204 231 897 1660 1823 2013 1781 2044 2275 2433 2579 2644 2051 1870 1480 1364 2950 3358 3622 3343 3365 2627 1860 1507 1158 1370 964
4 27 52 55 36 35 50 0 0 0 0 0 66 399 575 537 735 754 493 274 191 179 263 444 828 1527 1599 1692 1762 2290 2622 2064 1991 2814 1736 1928 1382 1324 2422 2921 3027 3186 3270 3221 3065 1986 1663 1037 648
0 3 1 37 51 29 40 1 0 0 0 0 42 107 503 423 529 725 728 566 423 422 442 575 882 1453 1555 1489 1651 2110 2997 3027 2260 2323 2771 2119 2257 1785 2579 2323 2584 2933 3386 3393 3361 2617 2423 1433 1185
0 0 0 3 21 19 27 9 49 11 0 3 0 3 127 352 294 417 683 758 601 566 628 757 749 1616 1400 1339 1308 1583 2099 2600 2558 2818 3236 2582 2367 2544 2358 2696 2555 2632 3151 3521 3655 2900 3095 2726 2190
0 0 0 0 0 12 13 6 0 5 0 0 0 4 58 183 235 344 542 549 720 591 679 862 893 1352 1279 1598 1772 1920 1756 2222 2472 2398 2573 2872 2922 3067 2547 2895 3028 2991 3007 3598 3960 3733 3019 3409 3084
0 0 0 0 0 0 2 2 17 3 7 121 285 740 369 224 329 422 691 632 816 875 862 903 991 1024 1786 2397 2846 1797 1442 1808 2130 2396 2268 2779 3074 3171 3128 2902 3069 3111 3201 3324 3838 3840 3301 3553 3483

GFSSGP_con_sbcape_243.txt.gz
CAPE
0 63 713 1049 2078 1515 108 76 108 89 126 127 242 439 571 705 915 743 784 647 932 1201 1177 1262 1900 1844 1910 1765 1864 1615 1329 1925 1948 2062 1985 1905 2140 2169 2211 2343 2491 2643 2299 2196 2121 2249 2188 2193 2172
101 365 1169 2235 1693 116 73 89 118 139 143 506 588 533 301 196 299 384 483 502 1028 804 1254 1427 1655 1874 1593 1940 1888 1560 1392 1777 1774 1655 1750 2077 2142 2174 2136 2097 2137 2205 1948 2051 2064 2080 2044 2159 1898
592 839 1974 1824 711 107 53 108 187 149 342 461 744 608 266 82 95 248 318 503 762 1002 1073 1625 1837 1903 1805 1767 1945 1944 1937 1646 1780 1835 1936 2024 1924 1978 2007 2131 2016 2089 1951 1819 1647 1590 1662 1936 2130
1216 1849 2035 1228 261 89 99 159 254 149 213 515 519 125 66 91 147 189 224 330 387 824 1004 1682 1748 1661 1771 1996 1902 1776 1874 1832 1786 1823 1735 1718 1698 1822 2069 2119 2050 1759 1951 1764 2102 1814 1995 1894 1192
1347 1660 1262 1016 333 268 225 244 199 201 264 363 195 45 80 147 117 176 183 209 466 815 956 1564 1849 1860 1844 1875 1946 1727 1949 1774 1992 1919 1871 1790 1885 1773 1785 1769 2021 2162 1969 1933 2057 2008 1914 1243 1275
1933 1462 801 259 267 243 288 342 226 329 362 244 33 61 122 99 107 134 139 193 312 258 1053 1339 1898 1872 1863 1879 1878 1683 1835 1851 1775 1654 1655 1755 1511 1822 1889 1968 2027 1904 1886 2146 2052 2113 1826 1669 1341
1132 1200 987 353 634 358 549 482 266 153 144 140 57 108 40 83 50 89 146 159 237 475 590 844 1160 1558 1788 1772 1841 1824 1701 1751 1739 1655 1570 1705 1785 1518 1489 1840 1931 1833 2000 1956 1911 2084 1929 2000 1809
1228 855 492 330 528 840 437 110 4 13 193 43 56 39 0 47 45 43 132 129 165 283 260 560 688 179 945 1214 1727 1587 1644 1654 1495 1202 954 929 937 992 1313 1791 1956 1849 1978 1922 1740 1957 1826 2181 2001
448 650 663 694 497 728 439 228 23 0 11 5 1 0 0 13 8 27 74 117 379 372 217 273 311 383 666 755 1507 1393 1196 1117 1119 1266 1378 1308 990 1384 960 1875 1415 1867 1597 1617 1694 1749 1704 1967 2322
734 695 535 661 663 570 510 264 27 7 0 0 0 0 0 3 2 20 24 56 115 108 95 285 134 351 443 194 933 921 1074 1643 1486 1353 1512 1575 2125 2043 1287 1444 1374 1258 1595 1385 1357 1616 1801 1906 1282
511 246 443 692 995 516 450 169 113 257 289 13 0 0 0 0 2 13 22 10 76 76 139 249 312 334 402 665 1221 1102 1364 1431 1474 1534 1475 2396 1406 1717 1004 1065 1090 1104 1442 753 831 794 1613 1446 716
300 96 407 768 801 741 661 550 197 510 46 4 0 0 0 0 2 3 14 4 9 25 94 272 392 917 1132 1089 1262 1026 1353 1531 1151 1808 2141 1557 1281 1723 1457 1046 1182 1055 1451 811 790 884 1167 863 754
397 86 273 474 702 906 840 693 670 505 0 0 0 0 0 0 0 0 2 5 3 0 21 385 557 1054 1009 1686 1696 1436 511 929 1283 1339 1342 1612 1452 1821 1747 1388 997 1050 1062 1024 863 1359 1477 1070 892
447 294 397 501 730 788 774 811 627 406 0 0 0 0 0 0 0 0 0 4 8 0 0 389 661 853 916 2282 1369 1283 1558 1168 1437 1287 1596 1150 1030 1691 1278 1361 1069 819 807 841 816 1427 1549 1234 700
228 402 492 557 642 632 576 629 414 432 23 0 0 0 0 0 0 0 0 3 6 5 49 306 411 850 1210 1670 1721 1827 1097 1275 990 1790 1554 1539 1578 1581 2339 831 687 588 1105 1114 1714 1831 1164 779 796
207 269 314 482 463 604 401 410 914 601 270 0 0 1 7 5 0 0 0 0 0 3 55 207 260 823 1139 1538 1410 1757 1395 911 1025 1089 1484 1474 1648 1527 1974 942 598 955 1264 1181 1034 1501 830 825 770
167 69 481 480 223 721 407 559 795 489 471 44 0 0 3 11 0 0 0 0 0 1 237 479 584 712 978 1459 1468 2780 1845 1728 1120 1179 1384 1660 1486 1646 1271 916 1734 2150 1283 1666 998 833 1469 837 863
119 122 19 122 124 174 330 316 566 399 326 300 11 0 3 9 4 0 0 0 0 30 526 720 681 947 1227 1324 1902 1345 1361 1478 1102 1300 1875 2004 1735 1717 1716 1264 1911 2513 1124 1472 1397 2901 952 1743 1052
48 61 81 55 32 211 199 285 490 482 198 355 155 2 0 6 3 0 0 0 0 202 679 946 1013 2146 1665 1184 1050 1070 1631 1681 2414 2566 2087 2196 1970 1981 2105 1385 1749 2825 1464 2942 1871 1539 1417 1020 1061
38 61 84 33 27 59 188 112 110 690 476 209 329 33 1 0 2 1 49 68 42 315 786 1025 1172 1718 1619 1093 1367 2249 2408 1542 1708 1846 2120 2067 2027 2226 1808 2382 2016 2231 2276 2228 2342 2234 1478 897 1553
86 83 85 83 60 42 31 34 39 171 572 572 553 445 173 1 0 0 37 116 142 473 798 1078 1361 1778 2172 2002 1379 2325 3184 1679 1322 1754 1446 1568 1882 1934 1709 1729 1823 2284 3215 1751 2468 2271 1924 1734 1249
68 88 78 10 56 54 78 60 138 106 370 627 791 597 373 114 1 1 0 72 168 417 692 1079 1605 2395 1897 2552 2359 3247 2097 1159 596 938 1029 1463 1817 1842 1804 1735 1779 2116 1450 3738 2185 1790 2391 2236 1642
29 49 98 96 63 71 78 25 72 226 190 523 561 919 540 615 3 0 19 2 75 261 534 923 1698 2495 2943 2826 2717 2332 2148 1017 976 829 3167 2964 2792 1811 1524 1976 2225 2806 2202 1295 2020 2007 2451 1797 1319
8 18 42 79 64 85 86 91 111 302 281 316 593 592 853 599 344 19 3 35 42 90 265 693 2515 3117 2912 2656 2544 3833 3454 2468 831 1570 1624 1447 1950 2058 2105 2214 2949 3222 2488 1669 1682 2128 2438 2484 2264
6 40 64 88 70 53 78 77 84 55 27 175 482 773 776 757 605 166 18 38 99 87 184 349 1968 2695 2372 2143 2271 2738 3411 3600 3351 2644 1580 2093 1054 1190 4158 3452 3697 3219 3494 2828 2214 2319 2342 2223 1873
1 30 60 92 75 59 67 49 79 33 35 28 269 652 670 627 838 590 77 64 126 228 173 225 1714 2759 2691 1974 2908 3333 3687 2159 2223 2998 1646 1165 883 1008 4434 3419 2895 2830 3269 3242 3324 2202 1334 2333 1505
0 3 1 79 85 80 72 62 73 39 0 41 97 408 731 546 586 828 452 85 219 191 350 308 1347 2147 2408 1831 2883 3487 3604 3601 2012 3251 3953 2297 2768 1398 2318 2672 2678 2492 2748 2989 3336 2818 2552 1938 1869
0 0 33 54 85 84 87 43 92 67 24 10 121 206 556 707 507 676 893 462 144 99 206 359 573 1511 1574 1386 2566 2872 3184 3657 3535 3984 3705 3374 3218 2149 2734 2407 2498 2537 2506 2869 3413 3420 3464 2831 2249
0 15 40 27 32 59 85 90 62 68 89 40 35 28 140 632 629 513 674 901 605 244 196 337 524 1064 1805 2199 2321 2795 2327 3011 3345 2647 3186 3428 3319 3878 2995 3122 2740 2541 2494 2697 3821 4175 3288 3628 3158
1 5 12 26 6 19 54 91 56 131 93 26 73 488 266 158 609 498 511 660 1036 775 416 448 905 1083 2257 2792 2889 2304 1977 2647 2402 3492 3334 2988 3475 4010 3288 3313 3677 3225 3147 3903 4141 3194 3002 3203 2855

GFSSGP_con_sbcape_249.txt.gz
CAPE
0 0 49 673 665 735 60 51 154 165 36 58 87 126 188 277 202 306 810 770 1160 1235 1486 1954 2530 2313 1884 1700 1998 2832 2473 1909 1834 2120 2455 2140 2183 2538 1882 1697 2113 2100 2105 1899 1916 1643 1949 2038 1585
0 17 957 833 483 54 51 129 142 60 1 21 48 95 195 281 366 669 702 716 798 973 1053 1465 2480 2402 1693 1907 2253 2393 2249 1945 1842 1934 2283 2232 2193 2348 2630 2151 2325 2565 2524 2377 2060 1899 1756 1606 1512
0 362 25 442 378 12 36 151 298 284 13 0 0 0 10 175 456 461 420 496 631 702 809 1443 2072 2190 1684 1446 2539 2377 2255 1975 2163 1994 2036 2244 2511 2709 2635 2509 2154 2523 1866 1775 1916 1984 1898 1662 1361
1169 1069 885 680 241 48 91 125 155 49 1 0 0 0 48 238 253 181 421 699 716 934 1240 2020 2138 1632 1907 2009 2542 2234 2236 2169 2254 1747 1917 2496 2137 2583 2560 2257 2638 2434 2233 2221 1834 1328 977 1111 1214
1153 635 468 261 16 66 114 192 59 0 0 0 0 0 0 91 131 260 420 561 622 938 1167 1466 2397 2065 1712 1804 1850 2423 2125 2496 2372 2209 2114 2198 2380 2438 2496 2167 2176 2192 2177 1915 1468 1124 920 732 827
963 25 63 146 140 49 151 105 67 0 0 0 0 0 0 4 124 258 287 456 525 791 984 1221 2058 2249 1857 1868 1800 1942 1839 1961 1830 1882 1839 1905 1956 2530 2829 2680 2236 2109 2221 2093 1582 1328 1084 939 842
556 193 196 277 292 329 258 125 2 0 0 0 0 0 0 5 97 74 81 193 410 715 776 1043 1287 1510 1730 1813 1757 2163 1696 1662 1792 1670 1925 2166 2142 2115 2179 2568 2784 2150 2048 1983 1853 1747 1566 1303 1014
24 1 276 161 595 282 234 41 2 0 0 0 0 0 0 9 30 28 171 173 337 458 700 860 980 1051 1149 1298 2095 2131 2370 1567 1539 1683 1770 1672 1771 1957 1827 2495 2792 1923 1885 1873 1690 1673 1729 1926 2136
33 89 43 97 564 233 25 12 1 0 0 0 0 0 0 6 11 20 67 56 36 282 520 620 657 813 859 1182 1383 2219 1575 1369 1233 1035 1181 1593 631 980 1406 1966 2176 1905 1772 1650 1644 1562 1857 2540 2779
29 0 3 31 201 260 2 0 0 0 0 0 0 0 0 11 8 1 2 2 52 109 69 243 479 670 687 915 1102 830 701 505 432 605 577 618 488 497 1088 1675 1712 1654 1639 1598 1521 1897 2260 2149 1387
57 0 222 8 14 76 1 131 70 0 0 0 0 0 0 3 12 6 3 5 66 69 47 7 114 349 173 504 679 413 525 882 855 657 761 798 903 1185 782 818 1071 1012 1382 844 1347 1269 1474 1209 960
58 113 296 213 540 470 489 377 60 0 0 0 0 0 0 0 0 0 13 0 0 6 1 31 96 103 255 508 587 414 698 741 475 316 412 625 771 710 597 626 463 552 571 834 265 361 498 719 932
75 352 324 184 715 592 647 499 68 0 0 0 0 0 0 0 0 0 0 1 1 6 55 299 703 302 0 322 579 311 209 614 645 642 889 846 777 744 306 498 651 528 520 914 653 448 852 863 673
141 66 118 549 808 636 814 594 84 0 0 0 0 0 0 0 0 0 0 2 14 114 136 303 756 121 178 27 10 261 0 71 630 645 1005 855 1195 1057 1059 852 794 522 514 743 784 862 885 884 937
99 49 136 347 392 359 494 526 80 0 0 0 0 0 0 0 0 0 0 0 0 37 276 417 415 987 1034 433 469 151 67 446 403 558 993 928 749 929 888 977 1018 664 1282 864 1062 1253 1466 1467 668
96 199 139 233 68 333 286 355 647 80 0 0 0 0 0 0 0 0 0 0 0 0 156 116 482 705 920 942 840 746 657 732 938 1401 1088 1136 1033 1115 1140 565 699 461 383 545 666 738 1056 1268 612
7 6 297 206 16 419 392 358 527 9 0 0 0 0 0 0 0 0 0 0 0 22 79 62 255 421 1003 1176 1262 1072 899 707 958 865 1277 599 824 1392 1771 428 457 490 468 779 986 1131 1295 409 622
0 65 317 315 105 74 538 557 478 0 0 0 0 0 0 0 0 0 0 0 62 42 33 180 246 273 1175 1299 657 1157 1736 1134 877 861 1009 1237 1271 1392 1833 1583 674 903 1706 1687 2038 1070 616 1172 1487
0 9 142 130 3 105 27 554 506 113 0 0 0 0 0 0 0 0 0 0 95 52 4 417 462 508 849 1099 1238 1381 1008 1488 999 896 1060 1081 1364 1498 2261 1455 1344 2109 2067 1985 824 445 420 572 1347
0 4 2 10 176 106 99 608 552 394 96 0 0 0 0 0 0 0 0 0 14 71 52 846 860 1360 655 801 1214 917 1080 1211 1194 1163 1170 1982 1258 1484 1812 1981 1211 1604 2552 1189 879 1731 1674 1933 1012
0 0 4 46 50 173 183 769 772 552 386 0 0 0 0 0 0 0 0 0 0 173 278 893 713 920 1254 746 1284 1694 1513 1461 1217 1499 1919 2041 1513 1751 1649 1785 1419 2072 1939 1556 1403 1702 1502 1116 1627
0 0 0 63 15 29 12 7 536 567 427 172 14 0 0 0 0 0 0 0 15 269 621 1122 937 847 947 1776 1201 1271 1264 941 878 1292 1431 1458 2261 1651 1966 1466 2416 2313 1996 1847 1709 1655 1668 1542 684
0 0 0 19 26 0 7 2 0 350 437 403 234 57 0 0 0 0 0 0 57 294 735 1120 944 849 480 1397 1724 1253 1213 719 816 1020 1342 1683 1585 1397 1852 1578 1724 1628 1709 1921 2192 1891 1476 1333 1822
0 0 0 0 36 0 0 0 0 208 500 448 433 266 12 0 0 0 0 0 126 313 615 659 1198 804 719 1271 1947 1379 1571 880 1024 1016 841 1271 1083 1386 1653 1358 1374 1903 2130 1133 1233 1856 1756 1757 1998
0 0 0 0 0 1 0 0 0 299 493 555 553 453 182 56 0 0 0 3 71 276 550 693 1468 960 798 1749 1848 1553 1438 1742 758 812 863 1017 1326 1452 1934 1605 1770 2318 2207 1796 1059 1685 1706 2022 1699
0 0 0 0 0 0 0 0 0 108 259 592 598 630 410 187 11 0 0 9 19 259 578 808 1221 1398 931 1808 1678 1541 1985 2128 2026 1441 1246 883 1194 997 1699 1916 2450 2080 2465 2547 1417 1979 1306 1248 1936
0 0 0 0 0 0 4 25 38 150 221 181 620 715 572 354 229 0 0 0 3 247 554 855 1031 1318 1371 1613 1534 1812 2275 2232 2137 2302 1216 1257 1957 1335 1853 2345 2522 2636 2769 2561 2436 2115 1775 931 713
0 0 0 0 0 0 0 0 0 34 58 88 339 799 793 593 401 5 0 0 0 47 365 1055 1124 1126 1664 1473 1802 1670 1826 2415 1895 2302 2278 1460 2438 2225 2431 2522 2496 2533 2385 2369 2780 2618 2357 1650 1553
0 0 0 0 0 0 0 0 0 0 2 1 342 838 878 732 554 213 14 0 0 0 268 1063 1169 1160 1456 1399 1849 1773 1765 2179 2228 2156 2041 2470 1877 2765 2356 2351 2281 2629 1965 2431 2432 2438 2024 2542 1910
0 0 0 0 0 0 0 0 19 1 7 0 20 897 963 892 617 485 52 18 0 0 25 677 1139 1259 1362 1556 1483 1758 1914 1789 1979 2169 2066 2205 2310 2546 2530 2457 2381 2372 2239 2274 2444 2311 2229 2358 2636

GFSSGP_con_sbcape_252.txt.gz
CAPE
0 7 78 582 283 207 33 70 64 129 116 45 56 31 174 357 121 24 470 869 1243 1414 1580 1731 2326 2174 2058 1959 2091 2108 1863 2278 2177 2552 2399 2109 1527 1057 805 2121 2212 2086 1877 1879 1850 2217 2094 1781 1484
0 9 158 731 246 2 11 2 58 93 104 69 79 217 319 481 679 593 689 956 1027 1201 1280 1532 2388 2311 1404 2069 2508 2429 1741 2067 2212 2214 2812 2817 1886 1633 2287 2379 2273 2209 2346 2090 1902 1542 1507 1575 1743
1 103 74 328 299 30 52 0 7 34 6 42 37 48 304 517 616 507 720 782 749 832 1104 1420 2325 1762 1182 1835 2237 2542 2381 1943 2203 2501 1993 2116 2688 2259 2245 2282 2358 2176 1994 1836 1799 1688 1507 1508 1610
1091 113 450 301 76 88 61 20 0 44 35 58 57 109 261 341 347 405 474 671 696 839 1232 2250 2433 1313 1489 1646 1769 1955 2388 2342 2415 2525 2499 2284 2459 2414 2385 1975 1761 1637 1803 1976 1773 1394 1326 1357 1402
1168 176 228 168 101 139 155 1 0 0 0 30 27 84 162 164 244 404 563 656 729 894 1152 1434 2296 2353 1919 1741 1900 1981 2230 2280 2159 2503 2179 2364 2511 2293 2836 2053 2101 2148 1972 1695 1049 957 1109 1086 1122
79 21 85 102 122 75 20 0 0 0 0 0 2 27 22 202 338 445 484 616 761 916 1134 1379 1901 1981 1988 1753 1936 1956 2078 2055 2074 2134 2240 2348 2393 2264 2388 2205 2245 2040 1935 1500 1214 878 769 846 818
214 112 193 305 198 79 54 5 21 0 0 0 0 43 7 191 202 316 345 507 700 898 935 1120 1383 1402 1773 1757 2043 2277 2242 1976 2236 2142 1935 2241 2353 2337 2074 2697 2342 2206 1882 1818 1771 1604 1407 1089 961
2 24 110 96 154 248 17 0 0 7 0 0 0 0 26 69 141 137 276 329 525 718 840 903 959 1018 1127 1476 2140 2062 2231 1859 1844 2207 2136 2213 2137 1944 2122 2853 2765 1950 1888 1742 1596 1613 1667 1815 1959
1 102 11 16 252 128 25 0 0 0 0 0 0 0 0 13 17 111 183 235 301 518 707 688 713 739 821 1189 1470 2212 1645 1625 1798 1657 1770 2023 1108 1167 1438 2054 2083 1844 1757 1660 1640 1542 1622 1959 1748
48 12 6 16 20 120 91 5 0 0 0 0 0 1 1 0 1 11 59 45 221 297 431 483 510 524 876 1214 1242 816 905 727 442 564 670 310 438 849 1196 1758 1981 1848 1704 1626 1622 1833 2141 1974 1187
64 14 0 0 16 81 171 1 0 0 0 0 0 0 1 6 14 0 0 15 93 254 218 257 377 391 443 877 578 329 237 238 349 423 360 382 379 1057 1032 1060 1234 965 1292 745 857 794 713 813 657
248 15 8 0 0 112 561 161 0 0 0 0 0 0 0 0 0 0 0 0 47 26 37 65 207 149 2 457 148 254 434 602 340 374 423 574 455 550 332 322 358 486 448 475 282 86 118 289 468
290 69 157 275 274 495 262 107 0 0 0 0 0 0 0 0 0 0 0 0 12 0 0 9 77 17 246 373 278 215 246 504 176 171 262 441 455 325 151 116 148 226 187 299 417 177 135 489 400
94 237 339 207 357 401 82 11 0 0 0 0 0 0 0 0 0 0 0 0 0 0 0 5 14 12 108 3 12 128 116 255 340 434 421 506 352 224 69 145 312 256 162 271 420 524 341 846 1059
169 140 393 185 228 414 86 115 0 0 0 0 0 0 0 0 0 0 0 0 0 0 169 49 0 5 4 0 0 34 11 71 398 330 456 610 623 487 337 383 482 322 138 341 517 667 893 1011 386
112 105 54 176 320 257 43 33 0 0 0 0 0 0 0 0 0 0 0 0 0 15 174 96 34 162 119 68 87 55 25 131 208 311 590 544 437 521 559 923 498 390 438 181 273 234 411 658 599
0 57 226 26 0 9 332 137 145 1 0 0 0 0 0 0 0 0 0 0 0 0 22 49 382 401 182 221 428 143 174 278 448 613 641 674 579 705 822 229 297 116 56 281 494 598 674 746 122
0 43 375 358 240 6 29 240 66 50 0 0 0 0 0 0 0 0 0 0 0 0 0 13 69 131 483 670 598 446 483 416 511 410 733 349 534 920 1056 692 244 224 477 1020 1315 1360 670 452 764
0 0 109 172 244 189 51 47 217 58 0 0 0 0 0 0 0 0 0 0 0 0 0 0 22 16 490 714 401 900 844 695 541 433 676 587 831 951 1251 1139 415 312 669 1324 1400 94 925 968 840
0 0 0 55 80 70 45 96 381 6 0 0 0 0 0 0 0 0 0 0 0 0 0 5 16 11 330 444 508 446 628 778 654 568 545 621 883 939 1151 1179 648 1086 1038 1741 618 919 909 1284 863
0 0 0 1 134 127 92 78 283 191 0 0 0 0 0 0 0 0 0 0 0 0 0 97 66 142 237 301 607 851 701 794 638 680 619 771 953 892 1082 1302 707 958 1866 815 469 1016 789 678 687
0 0 0 4 57 29 68 5 418 359 121 0 0 0 0 0 0 0 0 0 0 0 0 378 191 268 253 171 856 1018 812 817 671 715 769 1111 1011 1129 1055 1371 1163 1358 1629 1043 976 806 1401 715 173
0 0 0 0 32 3 0 0 0 367 331 8 0 0 0 0 0 0 0 0 4 0 33 532 287 298 360 759 430 751 533 675 605 612 1078 1087 1274 1178 1249 1088 1573 1327 1071 1246 1302 1360 1084 866 1273
0 0 0 0 0 8 0 0 0 395 529 256 0 0 0 0 0 0 0 0 4 9 86 490 250 182 60 745 1153 617 523 406 441 597 826 859 1118 916 1062 937 1098 928 1170 1175 1277 1045 865 885 1311
0 0 0 0 0 0 0 0 0 109 508 478 38 25 1 0 0 0 0 0 0 15 167 531 255 142 71 336 680 877 717 350 458 473 707 761 815 550 747 733 670 1033 1541 932 585 1028 1176 1095 1011
0 0 0 0 0 0 0 0 0 6 250 472 311 158 29 0 0 0 0 0 0 41 253 608 378 255 212 165 669 928 824 919 582 443 535 535 703 443 530 966 766 1033 1556 1877 487 1129 739 841 1305
0 0 0 0 0 0 0 0 0 0 0 311 464 349 134 0 0 0 0 0 0 55 286 386 739 476 447 158 664 1012 1014 1506 1632 514 385 443 292 484 624 1235 1216 1346 1429 1774 873 1388 1111 785 484
0 0 0 0 0 0 0 0 0 0 65 489 576 505 382 117 1 0 0 0 23 84 252 372 748 642 584 340 570 988 1136 1523 1396 1794 1147 814 858 837 715 1511 1596 1790 1953 1956 2016 1645 1458 1378 886
0 0 0 0 0 0 0 0 0 0 0 249 644 601 554 322 81 0 0 0 2 89 287 471 567 669 665 489 666 983 1094 1532 1363 1281 1616 1452 1075 1854 1377 1713 1749 1775 1880 1977 1821 2261 2134 1865 1593
0 0 0 0 0 0 0 0 0 0 0 0 781 367 672 582 314 33 0 1 4 156 344 588 622 635 730 663 772 1020 1085 1175 1618 1425 1392 1317 1429 1826 1872 1776 1618 1761 1853 1460 1915 1944 2291 1800 1738